Weather History for KIFP - May, 2013

Change the Weather History Date:

Tuesday, May 28, 2013

  Actual Average Record
Temperature  
Mean Temperature 85 °F -  
Max Temperature 95 °F 98 °F 113 °F (2003)
Min Temperature 75 °F 75 °F 61 °F (1991)
Cooling Degree Days 20    
Growing Degree Days 35 (Base 50)    
Moisture  
Dew Point 34 °F    
Average Humidity 16    
Maximum Humidity 21    
Minimum Humidity 9    
Precipitation  
Precipitation 0.00 in - - ()
Sea Level Pressure  
Sea Level Pressure 29.60 in    
Wind  
Wind Speed 9 mph (SSE)    
Max Wind Speed 16 mph    
Max Gust Speed 24 mph    
Visibility 10 miles    
Events      
Averages and records for this station are not official NWS values.
T = Trace of Precipitation, MM = Missing Value Source: NWS Daily Summary

Daily Weather History Graph

Daily Weather History Graph

Search for Another Location

Airport or City:

Trip Planner

Search our weather history database for the weather conditions in past years. The results will help you decide how hot, cold, wet, or windy it might be!

Date:

Astronomy

May. 28, 2013 Rise Set
Actual Time 5:26 AM MST 7:45 PM MST
Civil Twilight 4:57 AM MST 8:14 PM MST
Nautical Twilight 4:21 AM MST 8:49 PM MST
Astronomical Twilight 3:42 AM MST 9:28 PM MST
Moon 11:16 PM MST (5/28) 9:15 AM MST (5/28)
Length of Visible Light 15h 16m
Length of Day
14h 18m
Waning Gibbous, 82% of the Moon is Illuminated
May 28
Waning Gibbous
May 31
Last Quarter
Jun 8
New
Jun 16
First Quarter
Jun 23
Full

Hourly Weather History & Observations

Time (MST) Temp. Dew Point Humidity Pressure Visibility Wind Dir Wind Speed Gust Speed Precip Events Conditions
12:15 AM 84.2 °F 28.4 °F 13% 29.66 in 10.0 mi South 9.2 mph - N/A   Clear
12:35 AM 84.2 °F 30.2 °F 14% 29.66 in 10.0 mi SSW 5.8 mph - N/A   Clear
12:55 AM 82.4 °F 30.2 °F 15% 29.65 in 10.0 mi SW 5.8 mph - N/A   Clear
1:15 AM 80.6 °F 30.2 °F 16% 29.64 in 10.0 mi SSE 10.4 mph - N/A   Clear
1:35 AM 80.6 °F 30.2 °F 16% 29.64 in 10.0 mi SE 6.9 mph - N/A   Clear
1:55 AM 78.8 °F 30.2 °F 17% 29.64 in 10.0 mi SE 10.4 mph - N/A   Clear
2:15 AM 78.8 °F 28.4 °F 16% 29.63 in 10.0 mi SSE 11.5 mph - N/A   Clear
2:35 AM 80.6 °F 28.4 °F 15% 29.64 in 10.0 mi SSW 8.1 mph - N/A   Clear
2:55 AM 77.0 °F 28.4 °F 17% 29.64 in 10.0 mi SSE 8.1 mph - N/A   Clear
3:15 AM 77.0 °F 28.4 °F 17% 29.64 in 10.0 mi SSE 11.5 mph - N/A   Clear
3:35 AM 77.0 °F 30.2 °F 18% 29.64 in 10.0 mi SSE 10.4 mph - N/A   Clear
3:55 AM 77.0 °F 32.0 °F 19% 29.65 in 10.0 mi South 5.8 mph - N/A   Clear
4:15 AM 77.0 °F 32.0 °F 19% 29.65 in 10.0 mi East 9.2 mph - N/A   Clear
4:35 AM 77.0 °F 32.0 °F 19% 29.64 in 10.0 mi SSE 12.7 mph - N/A   Clear
4:55 AM 77.0 °F 32.0 °F 19% 29.63 in 10.0 mi South 13.8 mph - N/A   Clear
5:15 AM 77.0 °F 32.0 °F 19% 29.64 in 10.0 mi South 9.2 mph - N/A   Clear
5:35 AM 75.2 °F 32.0 °F 21% 29.64 in 10.0 mi SSE 9.2 mph - N/A   Clear
5:55 AM 75.2 °F 32.0 °F 21% 29.64 in 10.0 mi SE 8.1 mph - N/A   Clear
6:15 AM 75.2 °F 32.0 °F 21% 29.64 in 10.0 mi SSE 6.9 mph - N/A   Clear
6:35 AM 75.2 °F 32.0 °F 21% 29.65 in 10.0 mi SSE 9.2 mph - N/A   Clear
6:55 AM 77.0 °F 32.0 °F 19% 29.64 in 10.0 mi SSE 13.8 mph - N/A   Clear
7:15 AM 77.0 °F 32.0 °F 19% 29.65 in 10.0 mi SSE 10.4 mph - N/A   Clear
7:35 AM 77.0 °F 32.0 °F 19% 29.65 in 10.0 mi South 11.5 mph - N/A   Clear
7:55 AM 77.0 °F 33.8 °F 21% 29.65 in 10.0 mi South 10.4 mph - N/A   Clear
8:15 AM 78.8 °F 32.0 °F 18% 29.65 in 10.0 mi South 9.2 mph - N/A   Clear
8:35 AM 80.6 °F 33.8 °F 18% 29.64 in 10.0 mi South 13.8 mph - N/A   Clear
8:55 AM 80.6 °F 33.8 °F 18% 29.66 in 10.0 mi ENE 11.5 mph - N/A   Clear
9:15 AM 80.6 °F 32.0 °F 17% 29.66 in 10.0 mi ENE 8.1 mph - N/A   Clear
9:35 AM 82.4 °F 33.8 °F 17% 29.65 in 10.0 mi East 12.7 mph - N/A   Clear
9:55 AM 82.4 °F 35.6 °F 19% 29.65 in 10.0 mi East 13.8 mph - N/A   Clear
10:15 AM 84.2 °F 33.8 °F 16% 29.65 in 10.0 mi East 12.7 mph - N/A   Clear
10:35 AM 84.2 °F 35.6 °F 18% 29.64 in 10.0 mi East 13.8 mph 19.6 mph N/A   Clear
10:55 AM 84.2 °F 35.6 °F 18% 29.64 in 10.0 mi East 12.7 mph 21.9 mph N/A   Clear
11:15 AM 86.0 °F 35.6 °F 17% 29.64 in 10.0 mi South 11.5 mph - N/A   Clear
11:35 AM 86.0 °F 35.6 °F 17% 29.64 in 10.0 mi SE 15.0 mph - N/A   Clear
11:55 AM 86.0 °F 35.6 °F 17% 29.63 in 10.0 mi SSE 8.1 mph 20.7 mph N/A   Clear
12:15 PM 86.0 °F 35.6 °F 17% 29.62 in 10.0 mi SE 16.1 mph 24.2 mph N/A   Partly Cloudy
12:35 PM 87.8 °F 37.4 °F 17% 29.61 in 10.0 mi ESE 15.0 mph - N/A   Partly Cloudy
12:55 PM 89.6 °F 37.4 °F 16% 29.60 in 10.0 mi SSE 9.2 mph - N/A   Clear
1:15 PM 89.6 °F 37.4 °F 16% 29.60 in 10.0 mi South 13.8 mph 19.6 mph N/A   Clear
1:35 PM 91.4 °F 37.4 °F 15% 29.59 in 10.0 mi South 10.4 mph - N/A   Clear
1:55 PM 91.4 °F 37.4 °F 15% 29.58 in 10.0 mi South 11.5 mph - N/A   Clear
2:15 PM 91.4 °F 37.4 °F 15% 29.58 in 10.0 mi ENE 3.5 mph - N/A   Clear
2:35 PM 93.2 °F 37.4 °F 14% 29.57 in 10.0 mi SE 9.2 mph - N/A   Clear
2:55 PM 91.4 °F 35.6 °F 14% 29.56 in 10.0 mi ESE 4.6 mph - N/A   Clear
3:15 PM 93.2 °F 35.6 °F 13% 29.56 in 10.0 mi South 4.6 mph - N/A   Clear
3:35 PM 93.2 °F 35.6 °F 13% 29.55 in 10.0 mi South 8.1 mph - N/A   Clear
3:55 PM 93.2 °F 35.6 °F 13% 29.54 in 10.0 mi SSE 5.8 mph - N/A   Clear
4:15 PM 93.2 °F 35.6 °F 13% 29.53 in 10.0 mi East 4.6 mph - N/A   Clear
4:35 PM 95.0 °F 35.6 °F 12% 29.53 in 10.0 mi SW 6.9 mph - N/A   Clear
4:55 PM 93.2 °F 35.6 °F 13% 29.52 in 10.0 mi SSE 9.2 mph - N/A   Clear
5:15 PM 95.0 °F 35.6 °F 12% 29.52 in 10.0 mi ESE 6.9 mph - N/A   Clear
5:35 PM 93.2 °F 35.6 °F 13% 29.51 in 10.0 mi South 6.9 mph - N/A   Clear
5:55 PM 95.0 °F 35.6 °F 12% 29.51 in 10.0 mi South 9.2 mph - N/A   Clear
6:15 PM 95.0 °F 35.6 °F 12% 29.51 in 10.0 mi South 10.4 mph - N/A   Clear
6:35 PM 95.0 °F 35.6 °F 12% 29.51 in 10.0 mi South 10.4 mph - N/A   Clear
6:55 PM 95.0 °F 35.6 °F 12% 29.51 in 10.0 mi South 8.1 mph - N/A   Clear
7:15 PM 93.2 °F 35.6 °F 13% 29.51 in 10.0 mi South 9.2 mph - N/A   Clear
7:35 PM 93.2 °F 35.6 °F 13% 29.52 in 10.0 mi SW 3.5 mph - N/A   Clear
7:55 PM 93.2 °F 35.6 °F 13% 29.52 in 10.0 mi SSE 11.5 mph - N/A   Clear
8:15 PM 91.4 °F 35.6 °F 14% 29.52 in 10.0 mi SSE 10.4 mph - N/A   Clear
8:35 PM 91.4 °F 35.6 °F 14% 29.52 in 10.0 mi SSE 11.5 mph - N/A   Clear
8:55 PM 91.4 °F 35.6 °F 14% 29.53 in 10.0 mi SE 9.2 mph - N/A   Clear
9:15 PM 89.6 °F 35.6 °F 15% 29.54 in 10.0 mi SW 3.5 mph - N/A   Clear
9:35 PM 89.6 °F 35.6 °F 15% 29.55 in 10.0 mi Calm Calm - N/A   Clear
9:55 PM 87.8 °F 35.6 °F 16% 29.56 in 10.0 mi Calm Calm - N/A   Clear
10:15 PM 86.0 °F 37.4 °F 18% 29.57 in 10.0 mi NNE 4.6 mph - N/A   Clear
10:35 PM 87.8 °F 33.8 °F 15% 29.58 in 10.0 mi North 11.5 mph 17.3 mph N/A   Clear
10:55 PM 87.8 °F 32.0 °F 14% 29.58 in 10.0 mi NNW 10.4 mph - N/A   Clear
11:15 PM 86.0 °F 30.2 °F 13% 29.59 in 10.0 mi North 12.7 mph - N/A   Clear
11:35 PM 87.8 °F 23.0 °F 9% 29.60 in 10.0 mi NNE 16.1 mph 20.7 mph N/A   Clear
11:55 PM 86.0 °F 23.0 °F 10% 29.61 in 10.0 mi NNE 11.5 mph - N/A   Clear